Location: Fuglau
(48.6333°N, 15.5500°E)
Time: 02:19:11
(UTC+00:00)

STARLINK-77 - Pass Details

Date: 27 February 2020
Orbit: 529 x 530 km, 53.0° (Epoch: 05 April)

Event Time Altitude Azimuth Distance (km) Brightness Sun altitude
Rises 18:45:01 0° 288° (WNW) 2,671 8.6 -21.8°
Reaches altitude 10° 18:47:17 10° 294° (WNW) 1,781 7.3 -22.1°
Enters shadow 18:51:12 49° 10° (N) 695 4.0 -22.7°
